TimeEDT,TemperatureF,Dew PointF,Humidity,Sea Level PressureIn,VisibilityMPH,Wind Direction,Wind SpeedMPH,Gust SpeedMPH,PrecipitationIn,Events,Conditions,WindDirDegrees,DateUTC
12:15 AM,82.4,77.0,84,29.93,7.0,SSW,6.9,-,N/A,,Clear,210,2013-09-02 04:15:00
12:35 AM,82.4,77.0,84,29.92,10.0,SSW,6.9,-,N/A,,Clear,210,2013-09-02 04:35:00
12:55 AM,82.4,77.0,84,29.92,7.0,SW,4.6,-,N/A,,Clear,220,2013-09-02 04:55:00
1:15 AM,82.4,77.0,84,29.92,7.0,SSW,6.9,-,N/A,,Scattered Clouds,210,2013-09-02 05:15:00
1:35 AM,80.6,77.0,89,29.91,7.0,SW,6.9,-,N/A,,Mostly Cloudy,220,2013-09-02 05:35:00
1:55 AM,80.6,77.0,89,29.91,7.0,SW,4.6,-,N/A,,Scattered Clouds,220,2013-09-02 05:55:00
2:15 AM,80.6,77.0,89,29.91,7.0,SW,8.1,-,N/A,,Clear,230,2013-09-02 06:15:00
2:35 AM,80.6,75.2,84,29.90,10.0,SW,5.8,-,N/A,,Clear,220,2013-09-02 06:35:00
2:55 AM,80.6,73.4,79,29.90,7.0,SW,6.9,-,N/A,,Clear,220,2013-09-02 06:55:00
3:15 AM,80.6,73.4,79,29.90,10.0,SW,8.1,-,N/A,,Clear,220,2013-09-02 07:15:00
3:35 AM,78.8,73.4,83,29.90,7.0,SW,6.9,-,N/A,,Clear,220,2013-09-02 07:35:00
3:55 AM,78.8,73.4,83,29.90,7.0,SW,5.8,-,N/A,,Clear,230,2013-09-02 07:55:00
4:15 AM,78.8,73.4,83,29.90,7.0,SW,8.1,-,N/A,,Clear,230,2013-09-02 08:15:00
4:35 AM,78.8,73.4,83,29.90,7.0,SW,8.1,-,N/A,,Clear,220,2013-09-02 08:35:00
4:55 AM,78.8,73.4,83,29.91,7.0,SW,5.8,-,N/A,,Clear,220,2013-09-02 08:55:00
5:15 AM,78.8,73.4,83,29.91,7.0,SW,4.6,-,N/A,,Clear,230,2013-09-02 09:15:00
5:35 AM,78.8,73.4,83,29.91,10.0,SW,5.8,-,N/A,,Clear,230,2013-09-02 09:35:00
5:55 AM,78.8,73.4,83,29.91,7.0,SW,6.9,-,N/A,,Clear,230,2013-09-02 09:55:00
6:15 AM,78.8,73.4,83,29.90,7.0,SW,6.9,-,N/A,,Clear,220,2013-09-02 10:15:00
6:35 AM,78.8,73.4,83,29.91,7.0,SW,8.1,-,N/A,,Clear,230,2013-09-02 10:35:00
6:55 AM,77.0,73.4,89,29.91,10.0,SW,5.8,-,N/A,,Clear,220,2013-09-02 10:55:00
7:15 AM,78.8,73.4,83,29.92,7.0,SW,5.8,-,N/A,,Clear,230,2013-09-02 11:15:00
7:35 AM,78.8,73.4,83,29.93,7.0,WSW,9.2,-,N/A,,Clear,240,2013-09-02 11:35:00
7:55 AM,78.8,75.2,89,29.93,7.0,WSW,8.1,-,N/A,,Clear,240,2013-09-02 11:55:00
8:15 AM,78.8,75.2,89,29.93,-9999.0,WSW,10.4,-,N/A,,Unknown,240,2013-09-02 12:15:00
8:35 AM,80.6,75.2,84,29.93,5.0,SW,5.8,-,N/A,,Haze,230,2013-09-02 12:35:00
8:55 AM,80.6,75.2,84,29.94,-9999.0,WSW,8.1,-,N/A,,Clear,250,2013-09-02 12:55:00
9:15 AM,82.4,75.2,79,29.95,7.0,SW,6.9,-,N/A,,Clear,230,2013-09-02 13:15:00
9:35 AM,82.4,75.2,79,29.96,4.0,WSW,8.1,-,N/A,,Haze,240,2013-09-02 13:35:00
9:55 AM,82.4,75.2,79,29.96,-9999.0,WSW,5.8,9.2,N/A,,Clear,240,2013-09-02 13:55:00
10:15 AM,84.2,75.2,74,29.96,-9999.0,WSW,6.9,-,N/A,,Clear,240,2013-09-02 14:15:00
10:35 AM,86.0,75.2,70,29.96,-9999.0,SW,8.1,-,N/A,,Clear,230,2013-09-02 14:35:00
10:55 AM,86.0,75.2,70,29.96,-9999.0,WSW,9.2,-,N/A,,Clear,240,2013-09-02 14:55:00
11:15 AM,86.0,75.2,70,29.96,-9999.0,West,6.9,-,N/A,,Clear,260,2013-09-02 15:15:00
11:35 AM,87.8,75.2,66,29.96,-9999.0,WSW,11.5,-,N/A,,Clear,250,2013-09-02 15:35:00
11:55 AM,87.8,75.2,66,29.95,-9999.0,WSW,8.1,16.1,N/A,,Clear,250,2013-09-02 15:55:00
12:15 PM,87.8,75.2,66,29.95,-9999.0,SSW,6.9,-,N/A,,Scattered Clouds,210,2013-09-02 16:15:00
12:35 PM,89.6,75.2,62,29.94,-9999.0,West,9.2,-,N/A,,Scattered Clouds,270,2013-09-02 16:35:00
12:55 PM,89.6,75.2,62,29.94,-9999.0,West,9.2,-,N/A,,Scattered Clouds,260,2013-09-02 16:55:00
1:15 PM,89.6,75.2,62,29.93,7.0,West,11.5,17.3,N/A,,Scattered Clouds,260,2013-09-02 17:15:00
1:35 PM,89.6,75.2,62,29.93,-9999.0,West,5.8,-,N/A,,Scattered Clouds,260,2013-09-02 17:35:00
1:55 PM,91.4,77.0,63,29.92,-9999.0,West,9.2,-,N/A,,Scattered Clouds,260,2013-09-02 17:55:00
2:15 PM,89.6,75.2,62,29.91,7.0,West,5.8,-,N/A,,Mostly Cloudy,260,2013-09-02 18:15:00
2:35 PM,91.4,77.0,63,29.90,7.0,SW,6.9,-,N/A,,Mostly Cloudy,230,2013-09-02 18:35:00
2:55 PM,91.4,75.2,59,29.89,-9999.0,WSW,6.9,-,N/A,,Mostly Cloudy,250,2013-09-02 18:55:00
3:15 PM,93.2,75.2,56,29.88,-9999.0,SW,5.8,-,N/A,,Scattered Clouds,220,2013-09-02 19:15:00
3:35 PM,89.6,73.4,59,29.87,5.0,West,6.9,-,N/A,,Clear,260,2013-09-02 19:35:00
3:55 PM,93.2,73.4,52,29.86,-9999.0,SW,8.1,-,N/A,,Scattered Clouds,230,2013-09-02 19:55:00
4:15 PM,89.6,75.2,62,29.86,-9999.0,Calm,Calm,-,N/A,,Scattered Clouds,0,2013-09-02 20:15:00
4:35 PM,89.6,75.2,62,29.85,-9999.0,South,4.6,-,N/A,,Mostly Cloudy,180,2013-09-02 20:35:00
4:55 PM,89.6,77.0,66,29.85,-9999.0,SSW,6.9,-,N/A,,Scattered Clouds,200,2013-09-02 20:55:00
5:15 PM,87.8,77.0,70,29.86,-9999.0,SSW,6.9,-,N/A,,Scattered Clouds,200,2013-09-02 21:15:00
5:35 PM,87.8,77.0,70,29.86,-9999.0,South,6.9,-,N/A,,Mostly Cloudy,190,2013-09-02 21:35:00
5:55 PM,87.8,78.8,75,29.86,-9999.0,South,10.4,16.1,N/A,,Mostly Cloudy,180,2013-09-02 21:55:00
6:15 PM,86.0,77.0,74,29.86,-9999.0,South,8.1,16.1,N/A,,Scattered Clouds,190,2013-09-02 22:15:00
6:35 PM,84.2,77.0,79,29.87,4.0,South,9.2,16.1,N/A,Thunderstorm,Haze,190,2013-09-02 22:35:00
6:55 PM,84.2,77.0,79,29.86,7.0,South,6.9,-,N/A,Thunderstorm,Scattered Clouds,180,2013-09-02 22:55:00
7:15 PM,80.6,77.0,89,29.86,7.0,SSW,8.1,16.1,N/A,Rain-Thunderstorm,Thunderstorms and Rain,210,2013-09-02 23:15:00
7:35 PM,73.4,69.8,88,29.88,1.5,SSW,9.2,31.1,N/A,Rain-Thunderstorm,Heavy Thunderstorms and Rain,210,2013-09-02 23:35:00
7:55 PM,73.4,69.8,88,29.89,10.0,Calm,Calm,-,N/A,Rain-Thunderstorm,Light Thunderstorms and Rain,0,2013-09-02 23:55:00
8:15 PM,73.4,71.6,94,29.90,7.0,SSW,6.9,-,N/A,Rain-Thunderstorm,Light Thunderstorms and Rain,210,2013-09-03 00:15:00
8:35 PM,75.2,73.4,94,29.90,7.0,SW,9.2,-,N/A,Thunderstorm,Scattered Clouds,220,2013-09-03 00:35:00
8:55 PM,73.4,71.6,94,29.90,7.0,SW,9.2,-,N/A,Thunderstorm,Thunderstorm,220,2013-09-03 00:55:00
9:15 PM,73.4,71.6,94,29.90,10.0,SSW,9.2,-,N/A,,Clear,210,2013-09-03 01:15:00
9:35 PM,73.4,71.6,94,29.91,10.0,SSW,8.1,-,N/A,Thunderstorm,Thunderstorm,210,2013-09-03 01:35:00
9:55 PM,73.4,71.6,94,29.92,7.0,SSW,4.6,-,N/A,,Clear,210,2013-09-03 01:55:00
10:15 PM,73.4,71.6,94,29.92,7.0,SSW,4.6,-,N/A,,Clear,210,2013-09-03 02:15:00
10:35 PM,73.4,73.4,100,29.92,7.0,South,3.5,-,N/A,Thunderstorm,Scattered Clouds,190,2013-09-03 02:35:00
10:55 PM,75.2,73.4,94,29.93,7.0,SSW,4.6,-,N/A,,Scattered Clouds,210,2013-09-03 02:55:00
11:15 PM,77.0,73.4,89,29.92,7.0,SW,4.6,-,N/A,Thunderstorm,Clear,230,2013-09-03 03:15:00
11:35 PM,77.0,73.4,89,29.92,7.0,WSW,10.4,-,N/A,,Clear,240,2013-09-03 03:35:00
11:55 PM,77.0,71.6,83,29.92,7.0,SW,11.5,19.6,N/A,,Clear,230,2013-09-03 03:55:00